Regional Weather Roundup
Issued by NWS Grand Forks, ND

Home | Current Version | Previous Version | Graphics & Text | Print | Product List | Glossary On
Versions: 1 2 3 4 5 6 7 8 9 10 11 12 13 14 15 16 17 18 19 20 21 22 23 24 25 26 27 28 29 30 31 32 33 34 35 36 37 38 39 40 41 42 43 44 45 46 47 48 49 50
000
ASUS43 KFGF 201310
RWRFGF
PRAIRIE TO PINES  WEATHER ROUNDUP
NATIONAL WEATHER SERVICE EASTERN NORTH DAKOTA/GRAND FORKS ND
700 AM CST MON NOV 20 2017

 **SATELLITE DATA USED TO AUGMENT SKY COVER AT AUTOMATED STATIONS**
 *****  WEATHER ACROSS EASTERN NORTH DAKOTA  *****

CITY           SKY/WX    TMP DP  RH WIND       PRES   REMARKS
GRAND FORKS    CLOUDY    30  26  85 S16       29.41F WCI  19
GRAND FRKS AFB FAIR      32  25  77 SW8       29.40F WCI  24
GRAND FRKS NWS   N/A     30 N/A N/A S13         N/A  WCI  20
DEVILS LAKE    FAIR      33  24  69 SW9       29.38F
FARGO          FAIR      30  23  75 S12       29.48F WCI  20
WAHPETON ARPT  NOT AVBL
$$

 ***** WEATHER ACROSS CENTRAL AND WESTERN NORTH DAKOTA  *****

CITY           SKY/WX    TMP DP  RH WIND       PRES   REMARKS
BISMARCK       FAIR      32  23  69 CALM      29.46F
MINOT          FAIR      41  22  46 SW15      29.35F
JAMESTOWN      FAIR      31  23  72 S10       29.42F WCI  22
MINOT AFB      FAIR      37  23  57 W12       29.33F
GARRISON         N/A     33  25  72 W6        29.39F
WILLISTON      FAIR      35  21  56 SW9       29.38F
DICKINSON      FAIR      38  19  46 SW15      29.43F
HETTINGER      FAIR      37  17  44 NW10      29.50F
$$

 *****  OTHER AIRPORT OBSERVATIONS IN OUR AREA  *****

CITY           SKY/WX    TMP DP  RH WIND       PRES   REMARKS
WALHALLA       FAIR      34  25  69 S5        29.33F
GRAFTON AIRPOR NOT AVBL
VALLEY CITY AR NOT AVBL
CANDO          FAIR      28  28 100 SW6       29.38F WCI  22
CAVALIER APRT  FAIR      25  23  93 S9        29.36F WCI  15
GWINNER          N/A     30  23  74 SW14      29.48F WCI  20
SHEYENNE NWR     N/A     25  24  94 S6        29.95  WCI  18
ROLLA          FAIR      28  23  80 SW16      29.32F WCI  17
 ***** THE ABOVE OBSERVATIONS ARE NON NWS ARE NOT QUALITY
       CONTROLLED AND MAY MIS-REPORT RAIN FOR SNOW...
$$

  *****  WEATHER ACROSS NORTHERN MINNESOTA  *****

CITY           SKY/WX    TMP DP  RH WIND       PRES   REMARKS
FLAG ISLAND    FAIR      23  19  86 S15       29.45F WCI  10
WARROAD        MOCLDY    28  25  86 SE7       29.43F WCI  21
ROSEAU         FAIR      30  25  80 S9        29.42F WCI  22
HALLOCK        FAIR      30  27  86 S15       29.39F WCI  19
THF RVR FALLS  FAIR      29  24  82 S10       29.43F WCI  20
BAUDETTE       FAIR      21  18  88 SE10      29.46F WCI  10
WASKISH        FAIR      27  25  93 SE8       29.48F WCI  18
CROOKSTON      FAIR      30  25  80 S15       29.45F WCI  19
STEPHEN NDAWN    N/A     28  25  86 S16         N/A  WCI  17
GREENBUSH NDAW   N/A     30  25  80 S14         N/A  WCI  20
$$
  *****  WEATHER ACROSS CENTRAL AND WEST MINNESOTA  *****

CITY           SKY/WX    TMP DP  RH WIND       PRES   REMARKS
FOSSTON        FAIR      30  21  69 S9        29.46F WCI  22
BEMIDJI        FAIR      25  22  90 SE5       29.48F WCI  19
PARK RAPIDS    FAIR      25  21  85 SE6       29.52F WCI  18
ELBOW LAKE     FAIR      30  24  79 E8        29.54F WCI  22
WADENA         FAIR      25  21  86 SE3       29.52F
DETROIT LAKES  FAIR      32  27  80 S10       29.51F WCI  24
MOORHEAD       FAIR      28  23  80 S7        29.51F WCI  21
FERGUS FALLS   FAIR      30  25  80 S12       29.54F WCI  21
MORRIS MN      FAIR      27  23  86 SE9       29.54F WCI  17
STAPLES        FAIR      25  21  86 SE5       29.55F WCI  19
$$
  *****  WEATHER ELSEWHERE ACROSS MINNESOTA  *****

CITY           SKY/WX    TMP DP  RH WIND       PRES   REMARKS
DULUTH         FAIR      23  22  96 SE8       29.61F WCI  14
INTRNTL FALLS  CLOUDY    20  16  84 SE7       29.52F WCI  11
ELY            FAIR      23  21  93 CALM      29.59F
CLOQUET        FAIR      19  18  93 E3        29.61F
WHEATON        FAIR      27  21  80 SE7       29.55F WCI  19
BRAINERD       FAIR      23  20  88 CALM      29.58F
HIBBING        FAIR      16  14  92 CALM      29.59F
ALEXANDRIA     FAIR      28  23  81 SE6       29.56F WCI  22
SAINT CLOUD    FAIR      23  21  92 SE7       29.61F WCI  15
MINNEAPOLIS    MOCLDY    30  27  88 SE6       29.66F WCI  24
$$

  *****  WEATHER ACROSS SOUTH DAKOTA  *****

CITY           SKY/WX    TMP DP  RH WIND       PRES   REMARKS
SIOUX FALLS    MOCLDY    32  24  72 S6        29.61F
BROOKINGS      FAIR      27  22  81 SE7       29.58F WCI  19
WATERTOWN      FAIR      28  23  81 S9        29.54F WCI  19
HURON          FAIR      25  21  85 S6        29.56F WCI  18
SISSETON         N/A     29  23  78 S7        29.51F WCI  22
ABERDEEN       FAIR      24  22  91 S8        29.53F WCI  15
MITCHELL       FAIR      24  20  84 S5        29.59F WCI  18
PIERRE         FAIR      31  22  69 W7        29.56R WCI  24
MOBRIDGE       FAIR      28  23  81 SE8       29.49F WCI  20
RAPID CITY     FAIR      34  16  47 CALM      29.58S
$$

  *****  SOME WEATHER IN NEARBY STATES *****

CITY           SKY/WX    TMP DP  RH WIND       PRES   REMARKS
GLASGOW MT     FAIR      46  17  31 W10       29.40S
GREAT FALLS MT FAIR      46  19  34 SW23G37   29.52F
CHEYENNE WY    FAIR      48  -3  12 SW10G23   29.84F
SCOTTSBLUFF NE FAIR      45   8  22 W10       29.74F
OMAHA NE       FAIR      34  26  72 S13       29.76F WCI  25
DES MOINES IA  FAIR      37  28  70 S10       29.81F
DAVENPORT IA   FAIR      34  27  75 S10       29.93S
CHICAGO IL     FAIR      35  24  64 SW17G23   29.94F WCI  25
EAU CLAIRE WI  FAIR      22  21  96 CALM      29.72R
LA CROSSE WI   FAIR      33  27  78 S10       29.76F WCI  25
$$

  *****  SOME NATIONAL WEATHER *****

CITY           SKY/WX    TMP DP  RH WIND       PRES   REMARKS
LA GUARDIA NY  PTSUNNY   38  23  55 W12G21    30.02R
RALEIGH NC     FAIR      33  28  81 CALM      30.26R
ATLANTA GA     FAIR      34  28  79 N6        30.22R
NEW ORLEANS LA MOCLDY    49  37  63 E8        30.24R
OKLAHOMA CITY  FAIR      34  27  75 S9        30.09S
ALBUQUERQUE NM FAIR      30   7  37 NW5       30.17S
SALT LAKE CITY MOCLDY    36  31  82 E5        30.06F
LOS ANGELES CA FAIR      53  40  61 E5        29.98F
BOISE ID       CLOUDY    49  30  48 SE9       29.90F
SEATTLE WA     LGT RAIN  47  45  93 SW3       29.52F
$$

*** WEATHER ACROSS MANITOBA...SASKATCHEWAN AND ONTARIO ***
                ***ONTARIO***

CITY           SKY/WX    TMP DP  RH WIND       PRES   REMARKS
GERALDTON      PTCLDY    -2  -4  92 SW3       29.70S
THUNDER BAY    MOCLDY     9   5  85 W3        29.73F
SIOUX LOOKOUT  CLOUDY    10   7  85 SE6       29.56F WCI   1
TORONTO        MOCLDY    30  21  69 SW15G21   29.94R WCI  19
BIG TROUT LK   FLURRIES   5   3  92 W5        29.59F WCI  -4
PICKLE LAKE    MOCLDY     0  -4  85 S7        29.60S WCI -13
DRYDEN         CLOUDY    18  14  86 SE7       29.52F WCI   8
KENORA         CLOUDY    21  18  86 SE12      29.45F WCI   9
$$
                *** MANITOBA***

CITY           SKY/WX    TMP DP  RH WIND       PRES   REMARKS
BRANDON        CLOUDY    16  14  93 NW5       29.27F WCI   9
DAUPHIN        MOCLDY    18  14  86 N3        29.24F
ISLAND LAKE    FLURRIES   3   0  85 S7        29.57F WCI  -9
PILOT MOUND      N/A     27  21  80 S13         N/A  WCI  16
THE PAS        LGT SNOW  10   5  79 E12G18    29.34F WCI  -4
THOMPSON       MOCLDY    -2  -6  84 VRB2      29.56F
WINNIPEG       CLOUDY    28  23  80 S16G23    29.32F WCI  17
LYNN LAKE      FLURRIES  -4  -8  84 NE7       29.52F WCI -18
CHURCHILL      LGT SNOW  19  18  93 NW10      29.57S WCI   8
$$
                ***SASKATCHEWAN***

CITY           SKY/WX    TMP DP  RH WIND       PRES   REMARKS
ESTEVAN        MOCLDY    32  21  64 SW12G17   29.30F WCI  23
KINDERSLEY     FLURRIES  21  19  93 NW22G30   29.42R WCI   5
LLOYDMINSTER   MOCLDY    12   7  79 NW20G25   29.45R WCI  -6
PRINCE ALBERT  CLOUDY    14  10  85 N8        29.32R WCI   3
REGINA         CLOUDY    32  27  80 W14       29.24S WCI  22
YORKTON        CLOUDY    34  27  75 SW9       29.16F
N. BATTLEFORD  LGT SNOW  18  14  86 NW17      29.41R WCI   2
LA RONGE       LGT SNOW  10   7  85 NE8       29.38R WCI  -1
SASKATOON      LGT SNOW  14  10  85 NW12      29.34R WCI   0
SWIFT CURRENT  MOCLDY    36  27  69 W30G40    29.30R
$$
NOTE: THESE ARE AUTOMATED STATIONS WITH LIMITED QUALITY CONTROL
      "FAIR" INDICATES FEW OR NO CLOUDS BELOW 12,000 FEET WITH NO
      SIGNIFICANT WEATHER AND/OR OBSTRUCTIONS TO VISIBILITY.
      SKY/WX - SKY CONDITION AND SIGNIFICANT WEATHER.
      TMP - AIR TEMPERATURE.    DP   - DEWPOINT TEMPERATURE.
      RH  - RELATIVE HUMIDITY.  PRES - PRESSURE.
      HX  - HEAT INDEX.         WCI  - WIND CHILL INDEX.
$



USA.gov is the U.S. government's official web portal to all federal, state and local government web resources and services.